TimeAKDT,TemperatureF,Dew PointF,Humidity,Sea Level PressureIn,VisibilityMPH,Wind Direction,Wind SpeedMPH,Gust SpeedMPH,PrecipitationIn,Events,Conditions,WindDirDegrees,DateUTC
12:53 AM,35.1,30.9,85,30.04,10.0,East,4.6,-,N/A,,Overcast,80,2013-05-25 08:53:00
1:50 AM,33.8,30.2,87,30.03,10.0,East,5.8,-,N/A,,Mostly Cloudy,80,2013-05-25 09:50:00
1:53 AM,34.0,30.9,89,30.03,10.0,East,5.8,-,N/A,,Mostly Cloudy,80,2013-05-25 09:53:00
2:30 AM,33.8,30.2,87,30.03,10.0,Calm,Calm,-,N/A,,Mostly Cloudy,0,2013-05-25 10:30:00
2:53 AM,34.0,30.9,89,30.02,10.0,Calm,Calm,-,N/A,,Mostly Cloudy,0,2013-05-25 10:53:00
3:37 AM,33.8,30.2,87,30.01,10.0,Calm,Calm,-,N/A,,Mostly Cloudy,0,2013-05-25 11:37:00
3:53 AM,34.0,30.9,89,30.01,10.0,Calm,Calm,-,N/A,,Mostly Cloudy,0,2013-05-25 11:53:00
4:53 AM,34.0,30.9,89,29.99,10.0,North,5.8,-,N/A,,Overcast,350,2013-05-25 12:53:00
5:53 AM,35.1,32.0,89,29.99,10.0,Calm,Calm,-,N/A,,Overcast,0,2013-05-25 13:53:00
6:53 AM,35.1,32.0,89,29.98,10.0,Calm,Calm,-,N/A,,Overcast,0,2013-05-25 14:53:00
7:53 AM,36.0,32.0,86,29.95,10.0,NNW,6.9,-,N/A,,Overcast,330,2013-05-25 15:53:00
8:53 AM,39.9,33.1,77,29.96,10.0,NNW,4.6,-,N/A,,Mostly Cloudy,340,2013-05-25 16:53:00
9:53 AM,41.0,33.1,73,29.95,10.0,NNW,10.4,-,N/A,,Overcast,330,2013-05-25 17:53:00
10:53 AM,42.1,33.1,70,29.94,10.0,NW,9.2,-,N/A,,Overcast,310,2013-05-25 18:53:00
11:53 AM,46.0,34.0,63,29.92,10.0,North,6.9,-,N/A,,Overcast,350,2013-05-25 19:53:00
12:53 PM,46.9,34.0,61,29.91,10.0,North,10.4,-,N/A,,Mostly Cloudy,350,2013-05-25 20:53:00
1:53 PM,48.0,34.0,58,29.90,10.0,NNW,9.2,-,N/A,,Mostly Cloudy,340,2013-05-25 21:53:00
2:53 PM,50.0,34.0,54,29.89,10.0,North,10.4,-,N/A,,Overcast,360,2013-05-25 22:53:00
3:53 PM,50.0,35.1,57,29.88,10.0,North,9.2,-,N/A,,Mostly Cloudy,350,2013-05-25 23:53:00
4:53 PM,50.0,35.1,57,29.87,10.0,North,6.9,-,0.00,,Overcast,350,2013-05-26 00:53:00
5:53 PM,50.0,36.0,59,29.85,10.0,North,8.1,-,N/A,,Overcast,360,2013-05-26 01:53:00
6:53 PM,52.0,39.0,61,29.84,10.0,NNE,10.4,-,N/A,,Overcast,30,2013-05-26 02:53:00
7:53 PM,52.0,39.0,61,29.83,10.0,NNE,11.5,-,N/A,,Overcast,30,2013-05-26 03:53:00
8:53 PM,50.0,37.9,63,29.82,10.0,North,6.9,-,N/A,,Overcast,10,2013-05-26 04:53:00
9:53 PM,46.9,37.0,68,29.81,10.0,North,8.1,-,N/A,,Overcast,360,2013-05-26 05:53:00
10:53 PM,46.0,37.0,71,29.81,10.0,North,6.9,-,N/A,,Overcast,350,2013-05-26 06:53:00
11:53 PM,46.0,36.0,68,29.82,10.0,North,8.1,-,N/A,,Overcast,350,2013-05-26 07:53:00